Rubicon At Ellicott Bridge [ USA-CAL ]

Edit Gauge

Current Conditions

Reading of "n/a" = frozen gauge or gauge error.
Reading Trend Type Updated
running 0.0 r.c./hr Status 00h59m
604 cfs -36 cfs/hr Flow 00h59m

Station Description

AW Gauge ID: 50922
Source: dream
Station: 072
Enabled yes
AW thanks Chris Shackleton and Dreamflows for this data. Dreamflows data should only be analyzed in the context of the Dreamflows site. Data is often calculated and/or approximated. Please see Chris's site for a complete description of how this data should and can be interpreted. Source Gauge's Page

Information

Flow

Gauge History

Times listed in GMT 24h, ET and PT hours provided for convenience Graphs in GMT. Readings of "n/a" constitute a frozen gauge or gauge error.
Reading Updated (GMT) Eastern Pacific Comment
604.00 01/21/2019 20:43:44 Jan 21 03:43 pm Jan 21 12:43 pm
622.00 01/21/2019 20:13:52 Jan 21 03:13 pm Jan 21 12:13 pm
622.00 01/21/2019 19:29:04 Jan 21 02:29 pm Jan 21 11:29 am
634.00 01/21/2019 18:59:12 Jan 21 01:59 pm Jan 21 10:59 am
644.00 01/21/2019 18:29:20 Jan 21 01:29 pm Jan 21 10:29 am
656.00 01/21/2019 17:44:32 Jan 21 12:44 pm Jan 21 9:44 am
664.00 01/21/2019 16:59:44 Jan 21 11:59 am Jan 21 8:59 am
673.00 01/21/2019 16:44:48 Jan 21 11:44 am Jan 21 8:44 am
685.00 01/21/2019 16:00:00 Jan 21 11:00 am Jan 21 8:00 am
697.00 01/21/2019 15:28:00 Jan 21 10:28 am Jan 21 7:28 am
706.00 01/21/2019 15:13:04 Jan 21 10:13 am Jan 21 7:13 am
723.00 01/21/2019 14:13:20 Jan 21 09:13 am Jan 21 6:13 am
740.00 01/21/2019 13:43:28 Jan 21 08:43 am Jan 21 5:43 am
753.00 01/21/2019 13:13:36 Jan 21 08:13 am Jan 21 5:13 am
766.00 01/21/2019 12:28:48 Jan 21 07:28 am Jan 21 4:28 am
783.00 01/21/2019 11:58:56 Jan 21 06:58 am Jan 21 3:58 am
792.00 01/21/2019 11:44:00 Jan 21 06:44 am Jan 21 3:44 am
810.00 01/21/2019 10:59:12 Jan 21 05:59 am Jan 21 2:59 am
824.00 01/21/2019 10:29:20 Jan 21 05:29 am Jan 21 2:29 am
842.00 01/21/2019 09:59:28 Jan 21 04:59 am Jan 21 1:59 am
989.00 01/21/2019 06:28:16 Jan 21 01:28 am Jan 20 10:28 pm
1009.00 01/21/2019 05:58:24 Jan 21 12:58 am Jan 20 9:58 pm
1034.00 01/21/2019 05:13:36 Jan 21 12:13 am Jan 20 9:13 pm
1034.00 01/21/2019 04:43:44 Jan 20 11:43 pm Jan 20 8:43 pm
1019.00 01/21/2019 04:13:52 Jan 20 11:13 pm Jan 20 8:13 pm
1019.00 01/21/2019 03:29:04 Jan 20 10:29 pm Jan 20 7:29 pm
989.00 01/21/2019 02:29:20 Jan 20 09:29 pm Jan 20 6:29 pm
921.00 01/21/2019 01:44:32 Jan 20 08:44 pm Jan 20 5:44 pm
824.00 01/21/2019 01:14:40 Jan 20 08:14 pm Jan 20 5:14 pm
788.00 01/21/2019 00:44:48 Jan 20 07:44 pm Jan 20 4:44 pm
753.00 01/21/2019 00:00:00 Jan 20 07:00 pm Jan 20 4:00 pm
710.00 01/20/2019 23:28:00 Jan 20 06:28 pm Jan 20 3:28 pm
644.00 01/20/2019 22:58:08 Jan 20 05:58 pm Jan 20 2:58 pm
575.00 01/20/2019 22:13:20 Jan 20 05:13 pm Jan 20 2:13 pm
547.00 01/20/2019 21:58:24 Jan 20 04:58 pm Jan 20 1:58 pm
464.00 01/20/2019 21:13:36 Jan 20 04:13 pm Jan 20 1:13 pm
439.00 01/20/2019 20:43:44 Jan 20 03:43 pm Jan 20 12:43 pm
416.00 01/20/2019 19:58:56 Jan 20 02:58 pm Jan 20 11:58 am
384.00 01/20/2019 19:14:08 Jan 20 02:14 pm Jan 20 11:14 am
356.00 01/20/2019 18:44:16 Jan 20 01:44 pm Jan 20 10:44 am
345.00 01/20/2019 18:14:24 Jan 20 01:14 pm Jan 20 10:14 am
337.00 01/20/2019 17:29:36 Jan 20 12:29 pm Jan 20 9:29 am
337.00 01/20/2019 16:59:44 Jan 20 11:59 am Jan 20 8:59 am
337.00 01/20/2019 16:29:52 Jan 20 11:29 am Jan 20 8:29 am
333.00 01/20/2019 15:42:56 Jan 20 10:42 am Jan 20 7:42 am
333.00 01/20/2019 15:13:04 Jan 20 10:13 am Jan 20 7:13 am
337.00 01/20/2019 14:43:12 Jan 20 09:43 am Jan 20 6:43 am
337.00 01/20/2019 14:13:20 Jan 20 09:13 am Jan 20 6:13 am
341.00 01/20/2019 13:28:32 Jan 20 08:28 am Jan 20 5:28 am
345.00 01/20/2019 13:13:36 Jan 20 08:13 am Jan 20 5:13 am
345.00 01/20/2019 12:43:44 Jan 20 07:43 am Jan 20 4:43 am
349.00 01/20/2019 11:58:56 Jan 20 06:58 am Jan 20 3:58 am
352.00 01/20/2019 11:44:00 Jan 20 06:44 am Jan 20 3:44 am
352.00 01/20/2019 11:14:08 Jan 20 06:14 am Jan 20 3:14 am
356.00 01/20/2019 10:29:20 Jan 20 05:29 am Jan 20 2:29 am
360.00 01/20/2019 09:44:32 Jan 20 04:44 am Jan 20 1:44 am
380.00 01/20/2019 06:43:12 Jan 20 01:43 am Jan 19 10:43 pm
380.00 01/20/2019 06:13:20 Jan 20 01:13 am Jan 19 10:13 pm
384.00 01/20/2019 05:43:28 Jan 20 12:43 am Jan 19 9:43 pm
384.00 01/20/2019 04:58:40 Jan 19 11:58 pm Jan 19 8:58 pm
389.00 01/20/2019 04:28:48 Jan 19 11:28 pm Jan 19 8:28 pm
393.00 01/20/2019 03:14:08 Jan 19 10:14 pm Jan 19 7:14 pm
393.00 01/20/2019 02:59:12 Jan 19 09:59 pm Jan 19 6:59 pm
398.00 01/20/2019 02:14:24 Jan 19 09:14 pm Jan 19 6:14 pm
393.00 01/20/2019 01:29:36 Jan 19 08:29 pm Jan 19 5:29 pm
393.00 01/20/2019 00:59:44 Jan 19 07:59 pm Jan 19 4:59 pm
393.00 01/20/2019 00:29:52 Jan 19 07:29 pm Jan 19 4:29 pm
393.00 01/19/2019 23:42:56 Jan 19 06:42 pm Jan 19 3:42 pm
393.00 01/19/2019 23:28:00 Jan 19 06:28 pm Jan 19 3:28 pm
393.00 01/19/2019 23:13:04 Jan 19 06:13 pm Jan 19 3:13 pm
393.00 01/19/2019 22:43:12 Jan 19 05:43 pm Jan 19 2:43 pm
393.00 01/19/2019 22:13:20 Jan 19 05:13 pm Jan 19 2:13 pm
393.00 01/19/2019 21:43:28 Jan 19 04:43 pm Jan 19 1:43 pm
398.00 01/19/2019 20:58:40 Jan 19 03:58 pm Jan 19 12:58 pm
398.00 01/19/2019 20:43:44 Jan 19 03:43 pm Jan 19 12:43 pm
400.00 01/19/2019 19:58:56 Jan 19 02:58 pm Jan 19 11:58 am
402.00 01/19/2019 19:44:00 Jan 19 02:44 pm Jan 19 11:44 am
402.00 01/19/2019 18:59:12 Jan 19 01:59 pm Jan 19 10:59 am
407.00 01/19/2019 18:29:20 Jan 19 01:29 pm Jan 19 10:29 am
407.00 01/19/2019 17:59:28 Jan 19 12:59 pm Jan 19 9:59 am
411.00 01/19/2019 17:29:36 Jan 19 12:29 pm Jan 19 9:29 am
416.00 01/19/2019 16:59:44 Jan 19 11:59 am Jan 19 8:59 am
416.00 01/19/2019 16:14:56 Jan 19 11:14 am Jan 19 8:14 am
420.00 01/19/2019 15:42:56 Jan 19 10:42 am Jan 19 7:42 am
420.00 01/19/2019 14:58:08 Jan 19 09:58 am Jan 19 6:58 am
420.00 01/19/2019 14:28:16 Jan 19 09:28 am Jan 19 6:28 am
420.00 01/19/2019 14:13:20 Jan 19 09:13 am Jan 19 6:13 am
425.00 01/19/2019 13:28:32 Jan 19 08:28 am Jan 19 5:28 am
420.00 01/19/2019 12:58:40 Jan 19 07:58 am Jan 19 4:58 am
420.00 01/19/2019 12:43:44 Jan 19 07:43 am Jan 19 4:43 am
420.00 01/19/2019 12:13:52 Jan 19 07:13 am Jan 19 4:13 am
416.00 01/19/2019 11:29:04 Jan 19 06:29 am Jan 19 3:29 am
411.00 01/19/2019 10:59:12 Jan 19 05:59 am Jan 19 2:59 am
411.00 01/19/2019 10:44:16 Jan 19 05:44 am Jan 19 2:44 am
407.00 01/19/2019 10:14:24 Jan 19 05:14 am Jan 19 2:14 am
407.00 01/19/2019 06:43:12 Jan 19 01:43 am Jan 18 10:43 pm
411.00 01/19/2019 05:58:24 Jan 19 12:58 am Jan 18 9:58 pm
411.00 01/19/2019 05:28:32 Jan 19 12:28 am Jan 18 9:28 pm
420.00 01/19/2019 04:58:40 Jan 18 11:58 pm Jan 18 8:58 pm
425.00 01/19/2019 04:13:52 Jan 18 11:13 pm Jan 18 8:13 pm
430.00 01/19/2019 03:44:00 Jan 18 10:44 pm Jan 18 7:44 pm
439.00 01/19/2019 02:29:20 Jan 18 09:29 pm Jan 18 6:29 pm
439.00 01/19/2019 01:59:28 Jan 18 08:59 pm Jan 18 5:59 pm
449.00 01/19/2019 01:29:36 Jan 18 08:29 pm Jan 18 5:29 pm
454.00 01/19/2019 00:44:48 Jan 18 07:44 pm Jan 18 4:44 pm
459.00 01/19/2019 00:14:56 Jan 18 07:14 pm Jan 18 4:14 pm
464.00 01/18/2019 23:42:56 Jan 18 06:42 pm Jan 18 3:42 pm
469.00 01/18/2019 22:58:08 Jan 18 05:58 pm Jan 18 2:58 pm
474.00 01/18/2019 22:28:16 Jan 18 05:28 pm Jan 18 2:28 pm
479.00 01/18/2019 21:58:24 Jan 18 04:58 pm Jan 18 1:58 pm
489.00 01/18/2019 21:28:32 Jan 18 04:28 pm Jan 18 1:28 pm
510.00 01/18/2019 20:58:40 Jan 18 03:58 pm Jan 18 12:58 pm
510.00 01/18/2019 19:58:56 Jan 18 02:58 pm Jan 18 11:58 am
520.00 01/18/2019 19:29:04 Jan 18 02:29 pm Jan 18 11:29 am
531.00 01/18/2019 18:59:12 Jan 18 01:59 pm Jan 18 10:59 am
542.00 01/18/2019 18:29:20 Jan 18 01:29 pm Jan 18 10:29 am
553.00 01/18/2019 17:44:32 Jan 18 12:44 pm Jan 18 9:44 am
570.00 01/18/2019 17:14:40 Jan 18 12:14 pm Jan 18 9:14 am
581.00 01/18/2019 16:44:48 Jan 18 11:44 am Jan 18 8:44 am
592.00 01/18/2019 16:00:00 Jan 18 11:00 am Jan 18 8:00 am
610.00 01/18/2019 15:28:00 Jan 18 10:28 am Jan 18 7:28 am
616.00 01/18/2019 14:58:08 Jan 18 09:58 am Jan 18 6:58 am
622.00 01/18/2019 14:28:16 Jan 18 09:28 am Jan 18 6:28 am
634.00 01/18/2019 14:13:20 Jan 18 09:13 am Jan 18 6:13 am
644.00 01/18/2019 13:43:28 Jan 18 08:43 am Jan 18 5:43 am
652.00 01/18/2019 12:58:40 Jan 18 07:58 am Jan 18 4:58 am
660.00 01/18/2019 12:28:48 Jan 18 07:28 am Jan 18 4:28 am
673.00 01/18/2019 11:58:56 Jan 18 06:58 am Jan 18 3:58 am
685.00 01/18/2019 11:44:00 Jan 18 06:44 am Jan 18 3:44 am
693.00 01/18/2019 10:59:12 Jan 18 05:59 am Jan 18 2:59 am
702.00 01/18/2019 10:29:20 Jan 18 05:29 am Jan 18 2:29 am
714.00 01/18/2019 09:59:28 Jan 18 04:59 am Jan 18 1:59 am
748.00 01/18/2019 06:28:16 Jan 18 01:28 am Jan 17 10:28 pm
748.00 01/18/2019 05:58:24 Jan 18 12:58 am Jan 17 9:58 pm
761.00 01/18/2019 05:13:36 Jan 18 12:13 am Jan 17 9:13 pm
766.00 01/18/2019 04:43:44 Jan 17 11:43 pm Jan 17 8:43 pm
779.00 01/18/2019 03:29:04 Jan 17 10:29 pm Jan 17 7:29 pm
792.00 01/18/2019 02:59:12 Jan 17 09:59 pm Jan 17 6:59 pm
806.00 01/18/2019 02:29:20 Jan 17 09:29 pm Jan 17 6:29 pm
824.00 01/18/2019 01:44:32 Jan 17 08:44 pm Jan 17 5:44 pm
842.00 01/18/2019 01:14:40 Jan 17 08:14 pm Jan 17 5:14 pm
851.00 01/18/2019 00:44:48 Jan 17 07:44 pm Jan 17 4:44 pm
856.00 01/18/2019 00:00:00 Jan 17 07:00 pm Jan 17 4:00 pm
865.00 01/17/2019 23:28:00 Jan 17 06:28 pm Jan 17 3:28 pm
897.00 01/17/2019 22:58:08 Jan 17 05:58 pm Jan 17 2:58 pm
912.00 01/17/2019 22:28:16 Jan 17 05:28 pm Jan 17 2:28 pm
945.00 01/17/2019 21:43:28 Jan 17 04:43 pm Jan 17 1:43 pm
945.00 01/17/2019 21:13:36 Jan 17 04:13 pm Jan 17 1:13 pm
945.00 01/17/2019 20:28:48 Jan 17 03:28 pm Jan 17 12:28 pm
940.00 01/17/2019 19:58:56 Jan 17 02:58 pm Jan 17 11:58 am
935.00 01/17/2019 19:14:08 Jan 17 02:14 pm Jan 17 11:14 am
950.00 01/17/2019 18:44:16 Jan 17 01:44 pm Jan 17 10:44 am
964.00 01/17/2019 18:14:24 Jan 17 01:14 pm Jan 17 10:14 am
989.00 01/17/2019 17:44:32 Jan 17 12:44 pm Jan 17 9:44 am
1009.00 01/17/2019 17:14:40 Jan 17 12:14 pm Jan 17 9:14 am
1054.00 01/17/2019 16:29:52 Jan 17 11:29 am Jan 17 8:29 am
1085.00 01/17/2019 15:42:56 Jan 17 10:42 am Jan 17 7:42 am
1095.00 01/17/2019 15:28:00 Jan 17 10:28 am Jan 17 7:28 am
1130.00 01/17/2019 15:13:04 Jan 17 10:13 am Jan 17 7:13 am
1152.00 01/17/2019 14:43:12 Jan 17 09:43 am Jan 17 6:43 am
1174.00 01/17/2019 13:58:24 Jan 17 08:58 am Jan 17 5:58 am
1196.00 01/17/2019 13:28:32 Jan 17 08:28 am Jan 17 5:28 am
1223.00 01/17/2019 13:13:36 Jan 17 08:13 am Jan 17 5:13 am
1250.00 01/17/2019 12:28:48 Jan 17 07:28 am Jan 17 4:28 am
1282.00 01/17/2019 11:58:56 Jan 17 06:58 am Jan 17 3:58 am
1314.00 01/17/2019 11:44:00 Jan 17 06:44 am Jan 17 3:44 am
1341.00 01/17/2019 11:14:08 Jan 17 06:14 am Jan 17 3:14 am
1300.00 01/17/2019 10:14:24 Jan 17 05:14 am Jan 17 2:14 am
761.00 01/17/2019 06:43:12 Jan 17 01:43 am Jan 16 10:43 pm
710.00 01/17/2019 06:13:20 Jan 17 01:13 am Jan 16 10:13 pm
673.00 01/17/2019 05:43:28 Jan 17 12:43 am Jan 16 9:43 pm
547.00 01/17/2019 04:28:48 Jan 16 11:28 pm Jan 16 8:28 pm
459.00 01/17/2019 03:58:56 Jan 16 10:58 pm Jan 16 7:58 pm
380.00 01/17/2019 02:44:16 Jan 16 09:44 pm Jan 16 6:44 pm
364.00 01/17/2019 02:14:24 Jan 16 09:14 pm Jan 16 6:14 pm
345.00 01/17/2019 01:29:36 Jan 16 08:29 pm Jan 16 5:29 pm
333.00 01/17/2019 00:59:44 Jan 16 07:59 pm Jan 16 4:59 pm
315.00 01/17/2019 00:29:52 Jan 16 07:29 pm Jan 16 4:29 pm
312.00 01/17/2019 00:00:00 Jan 16 07:00 pm Jan 16 4:00 pm
308.00 01/16/2019 23:13:04 Jan 16 06:13 pm Jan 16 3:13 pm
308.00 01/16/2019 22:43:12 Jan 16 05:43 pm Jan 16 2:43 pm
308.00 01/16/2019 22:13:20 Jan 16 05:13 pm Jan 16 2:13 pm
315.00 01/16/2019 21:28:32 Jan 16 04:28 pm Jan 16 1:28 pm
319.00 01/16/2019 20:58:40 Jan 16 03:58 pm Jan 16 12:58 pm
330.00 01/16/2019 20:13:52 Jan 16 03:13 pm Jan 16 12:13 pm
330.00 01/16/2019 19:58:56 Jan 16 02:58 pm Jan 16 11:58 am
337.00 01/16/2019 19:44:00 Jan 16 02:44 pm Jan 16 11:44 am
341.00 01/16/2019 18:59:12 Jan 16 01:59 pm Jan 16 10:59 am
345.00 01/16/2019 18:29:20 Jan 16 01:29 pm Jan 16 10:29 am
341.00 01/16/2019 17:59:28 Jan 16 12:59 pm Jan 16 9:59 am
341.00 01/16/2019 17:29:36 Jan 16 12:29 pm Jan 16 9:29 am
322.00 01/16/2019 16:59:44 Jan 16 11:59 am Jan 16 8:59 am
315.00 01/16/2019 16:44:48 Jan 16 11:44 am Jan 16 8:44 am
301.00 01/16/2019 16:14:56 Jan 16 11:14 am Jan 16 8:14 am
287.00 01/16/2019 15:28:00 Jan 16 10:28 am Jan 16 7:28 am
274.00 01/16/2019 14:58:08 Jan 16 09:58 am Jan 16 6:58 am
261.00 01/16/2019 14:43:12 Jan 16 09:43 am Jan 16 6:43 am
251.00 01/16/2019 14:13:20 Jan 16 09:13 am Jan 16 6:13 am
242.00 01/16/2019 13:28:32 Jan 16 08:28 am Jan 16 5:28 am
233.00 01/16/2019 12:58:40 Jan 16 07:58 am Jan 16 4:58 am
221.00 01/16/2019 12:43:44 Jan 16 07:43 am Jan 16 4:43 am
216.00 01/16/2019 11:58:56 Jan 16 06:58 am Jan 16 3:58 am
208.00 01/16/2019 11:14:08 Jan 16 06:14 am Jan 16 3:14 am
208.00 01/16/2019 10:44:16 Jan 16 05:44 am Jan 16 2:44 am
203.00 01/16/2019 09:59:28 Jan 16 04:59 am Jan 16 1:59 am
184.00 01/16/2019 06:28:16 Jan 16 01:28 am Jan 15 10:28 pm
177.00 01/16/2019 05:58:24 Jan 16 12:58 am Jan 15 9:58 pm
164.00 01/16/2019 05:28:32 Jan 16 12:28 am Jan 15 9:28 pm
158.00 01/16/2019 04:58:40 Jan 15 11:58 pm Jan 15 8:58 pm
140.00 01/16/2019 03:44:00 Jan 15 10:44 pm Jan 15 7:44 pm
130.00 01/16/2019 03:14:08 Jan 15 10:14 pm Jan 15 7:14 pm
123.00 01/16/2019 02:29:20 Jan 15 09:29 pm Jan 15 6:29 pm
116.00 01/16/2019 01:59:28 Jan 15 08:59 pm Jan 15 5:59 pm
109.00 01/16/2019 01:14:40 Jan 15 08:14 pm Jan 15 5:14 pm
102.00 01/16/2019 00:44:48 Jan 15 07:44 pm Jan 15 4:44 pm
97.00 01/16/2019 00:14:56 Jan 15 07:14 pm Jan 15 4:14 pm
92.00 01/15/2019 23:42:56 Jan 15 06:42 pm Jan 15 3:42 pm
89.00 01/15/2019 23:13:04 Jan 15 06:13 pm Jan 15 3:13 pm
86.00 01/15/2019 22:28:16 Jan 15 05:28 pm Jan 15 2:28 pm
81.00 01/15/2019 22:13:20 Jan 15 05:13 pm Jan 15 2:13 pm
79.00 01/15/2019 21:13:36 Jan 15 04:13 pm Jan 15 1:13 pm
77.00 01/15/2019 20:43:44 Jan 15 03:43 pm Jan 15 12:43 pm
76.00 01/15/2019 19:58:56 Jan 15 02:58 pm Jan 15 11:58 am
75.00 01/15/2019 19:29:04 Jan 15 02:29 pm Jan 15 11:29 am
74.00 01/15/2019 18:59:12 Jan 15 01:59 pm Jan 15 10:59 am
74.00 01/15/2019 18:29:20 Jan 15 01:29 pm Jan 15 10:29 am
72.00 01/15/2019 17:44:32 Jan 15 12:44 pm Jan 15 9:44 am
71.00 01/15/2019 17:14:40 Jan 15 12:14 pm Jan 15 9:14 am
71.00 01/15/2019 16:29:52 Jan 15 11:29 am Jan 15 8:29 am
71.00 01/15/2019 16:00:00 Jan 15 11:00 am Jan 15 8:00 am
71.00 01/15/2019 15:42:56 Jan 15 10:42 am Jan 15 7:42 am
72.00 01/15/2019 14:58:08 Jan 15 09:58 am Jan 15 6:58 am
72.00 01/15/2019 14:13:20 Jan 15 09:13 am Jan 15 6:13 am
72.00 01/15/2019 13:43:28 Jan 15 08:43 am Jan 15 5:43 am
72.00 01/15/2019 12:58:40 Jan 15 07:58 am Jan 15 4:58 am
72.00 01/15/2019 12:28:48 Jan 15 07:28 am Jan 15 4:28 am
72.00 01/15/2019 12:13:52 Jan 15 07:13 am Jan 15 4:13 am
72.00 01/15/2019 11:44:00 Jan 15 06:44 am Jan 15 3:44 am
72.00 01/15/2019 10:59:12 Jan 15 05:59 am Jan 15 2:59 am
72.00 01/15/2019 10:29:20 Jan 15 05:29 am Jan 15 2:29 am
72.00 01/15/2019 09:59:28 Jan 15 04:59 am Jan 15 1:59 am
74.00 01/15/2019 06:28:16 Jan 15 01:28 am Jan 14 10:28 pm
74.00 01/15/2019 05:58:24 Jan 15 12:58 am Jan 14 9:58 pm
74.00 01/15/2019 04:43:44 Jan 14 11:43 pm Jan 14 8:43 pm
72.00 01/15/2019 03:58:56 Jan 14 10:58 pm Jan 14 7:58 pm
72.00 01/15/2019 03:29:04 Jan 14 10:29 pm Jan 14 7:29 pm
72.00 01/15/2019 02:59:12 Jan 14 09:59 pm Jan 14 6:59 pm
74.00 01/15/2019 02:14:24 Jan 14 09:14 pm Jan 14 6:14 pm
74.00 01/15/2019 01:44:32 Jan 14 08:44 pm Jan 14 5:44 pm
74.00 01/15/2019 01:14:40 Jan 14 08:14 pm Jan 14 5:14 pm
74.00 01/15/2019 00:29:52 Jan 14 07:29 pm Jan 14 4:29 pm
74.00 01/15/2019 00:14:56 Jan 14 07:14 pm Jan 14 4:14 pm
74.00 01/14/2019 23:28:00 Jan 14 06:28 pm Jan 14 3:28 pm
74.00 01/14/2019 22:58:08 Jan 14 05:58 pm Jan 14 2:58 pm
74.00 01/14/2019 22:13:20 Jan 14 05:13 pm Jan 14 2:13 pm
74.00 01/14/2019 21:43:28 Jan 14 04:43 pm Jan 14 1:43 pm
74.00 01/14/2019 21:28:32 Jan 14 04:28 pm Jan 14 1:28 pm
74.00 01/14/2019 20:58:40 Jan 14 03:58 pm Jan 14 12:58 pm
74.00 01/14/2019 20:28:48 Jan 14 03:28 pm Jan 14 12:28 pm
75.00 01/14/2019 19:58:56 Jan 14 02:58 pm Jan 14 11:58 am
75.00 01/14/2019 19:14:08 Jan 14 02:14 pm Jan 14 11:14 am
75.00 01/14/2019 18:44:16 Jan 14 01:44 pm Jan 14 10:44 am
75.00 01/14/2019 17:59:28 Jan 14 12:59 pm Jan 14 9:59 am
75.00 01/14/2019 17:29:36 Jan 14 12:29 pm Jan 14 9:29 am
75.00 01/14/2019 16:59:44 Jan 14 11:59 am Jan 14 8:59 am
75.00 01/14/2019 16:29:52 Jan 14 11:29 am Jan 14 8:29 am
75.00 01/14/2019 16:00:00 Jan 14 11:00 am Jan 14 8:00 am
75.00 01/14/2019 15:42:56 Jan 14 10:42 am Jan 14 7:42 am
75.00 01/14/2019 15:13:04 Jan 14 10:13 am Jan 14 7:13 am
76.00 01/14/2019 14:28:16 Jan 14 09:28 am Jan 14 6:28 am
76.00 01/14/2019 13:58:24 Jan 14 08:58 am Jan 14 5:58 am
76.00 01/14/2019 13:28:32 Jan 14 08:28 am Jan 14 5:28 am
76.00 01/14/2019 13:13:36 Jan 14 08:13 am Jan 14 5:13 am
76.00 01/14/2019 12:28:48 Jan 14 07:28 am Jan 14 4:28 am
76.00 01/14/2019 11:58:56 Jan 14 06:58 am Jan 14 3:58 am
76.00 01/14/2019 11:29:04 Jan 14 06:29 am Jan 14 3:29 am
76.00 01/14/2019 10:44:16 Jan 14 05:44 am Jan 14 2:44 am
76.00 01/14/2019 10:14:24 Jan 14 05:14 am Jan 14 2:14 am
77.00 01/14/2019 06:43:12 Jan 14 01:43 am Jan 13 10:43 pm
77.00 01/14/2019 05:43:28 Jan 14 12:43 am Jan 13 9:43 pm
77.00 01/14/2019 04:58:40 Jan 13 11:58 pm Jan 13 8:58 pm
77.00 01/14/2019 03:58:56 Jan 13 10:58 pm Jan 13 7:58 pm
77.00 01/14/2019 03:14:08 Jan 13 10:14 pm Jan 13 7:14 pm
77.00 01/14/2019 02:59:12 Jan 13 09:59 pm Jan 13 6:59 pm
79.00 01/14/2019 02:44:16 Jan 13 09:44 pm Jan 13 6:44 pm
79.00 01/14/2019 01:59:28 Jan 13 08:59 pm Jan 13 5:59 pm
79.00 01/14/2019 01:29:36 Jan 13 08:29 pm Jan 13 5:29 pm
79.00 01/14/2019 00:59:44 Jan 13 07:59 pm Jan 13 4:59 pm
79.00 01/14/2019 00:29:52 Jan 13 07:29 pm Jan 13 4:29 pm
79.00 01/14/2019 00:00:00 Jan 13 07:00 pm Jan 13 4:00 pm
79.00 01/13/2019 23:13:04 Jan 13 06:13 pm Jan 13 3:13 pm
79.00 01/13/2019 22:43:12 Jan 13 05:43 pm Jan 13 2:43 pm
79.00 01/13/2019 22:13:20 Jan 13 05:13 pm Jan 13 2:13 pm
80.00 01/13/2019 21:28:32 Jan 13 04:28 pm Jan 13 1:28 pm
80.00 01/13/2019 20:58:40 Jan 13 03:58 pm Jan 13 12:58 pm
80.00 01/13/2019 20:43:44 Jan 13 03:43 pm Jan 13 12:43 pm
80.00 01/13/2019 20:13:52 Jan 13 03:13 pm Jan 13 12:13 pm
80.00 01/13/2019 19:58:56 Jan 13 02:58 pm Jan 13 11:58 am
80.00 01/13/2019 19:44:00 Jan 13 02:44 pm Jan 13 11:44 am
80.00 01/13/2019 18:59:12 Jan 13 01:59 pm Jan 13 10:59 am

Status

Gauge History

Times listed in GMT 24h, ET and PT hours provided for convenience Graphs in GMT. Readings of "n/a" constitute a frozen gauge or gauge error.
Reading Updated (GMT) Eastern Pacific Comment
running 01/21/2019 20:43:44 Jan 21 03:43 pm Jan 21 12:43 pm
running 01/21/2019 20:13:52 Jan 21 03:13 pm Jan 21 12:13 pm
running 01/21/2019 19:29:04 Jan 21 02:29 pm Jan 21 11:29 am
running 01/21/2019 18:59:12 Jan 21 01:59 pm Jan 21 10:59 am
running 01/21/2019 18:29:20 Jan 21 01:29 pm Jan 21 10:29 am
running 01/21/2019 17:44:32 Jan 21 12:44 pm Jan 21 9:44 am
running 01/21/2019 16:59:44 Jan 21 11:59 am Jan 21 8:59 am
running 01/21/2019 16:44:48 Jan 21 11:44 am Jan 21 8:44 am
running 01/21/2019 16:00:00 Jan 21 11:00 am Jan 21 8:00 am
running 01/21/2019 15:28:00 Jan 21 10:28 am Jan 21 7:28 am
running 01/21/2019 15:13:04 Jan 21 10:13 am Jan 21 7:13 am
running 01/21/2019 14:13:20 Jan 21 09:13 am Jan 21 6:13 am
running 01/21/2019 13:43:28 Jan 21 08:43 am Jan 21 5:43 am
running 01/21/2019 13:13:36 Jan 21 08:13 am Jan 21 5:13 am
running 01/21/2019 12:28:48 Jan 21 07:28 am Jan 21 4:28 am
running 01/21/2019 11:58:56 Jan 21 06:58 am Jan 21 3:58 am
running 01/21/2019 11:44:00 Jan 21 06:44 am Jan 21 3:44 am
running 01/21/2019 10:59:12 Jan 21 05:59 am Jan 21 2:59 am
running 01/21/2019 10:29:20 Jan 21 05:29 am Jan 21 2:29 am
running 01/21/2019 09:59:28 Jan 21 04:59 am Jan 21 1:59 am
running 01/21/2019 06:28:16 Jan 21 01:28 am Jan 20 10:28 pm
running 01/21/2019 05:58:24 Jan 21 12:58 am Jan 20 9:58 pm
running 01/21/2019 05:13:36 Jan 21 12:13 am Jan 20 9:13 pm
running 01/21/2019 04:43:44 Jan 20 11:43 pm Jan 20 8:43 pm
running 01/21/2019 04:13:52 Jan 20 11:13 pm Jan 20 8:13 pm
running 01/21/2019 03:29:04 Jan 20 10:29 pm Jan 20 7:29 pm
running 01/21/2019 02:29:20 Jan 20 09:29 pm Jan 20 6:29 pm
running 01/21/2019 01:44:32 Jan 20 08:44 pm Jan 20 5:44 pm
running 01/21/2019 01:14:40 Jan 20 08:14 pm Jan 20 5:14 pm
running 01/21/2019 00:44:48 Jan 20 07:44 pm Jan 20 4:44 pm
running 01/21/2019 00:00:00 Jan 20 07:00 pm Jan 20 4:00 pm
running 01/20/2019 23:28:00 Jan 20 06:28 pm Jan 20 3:28 pm
running 01/20/2019 22:58:08 Jan 20 05:58 pm Jan 20 2:58 pm
running 01/20/2019 22:13:20 Jan 20 05:13 pm Jan 20 2:13 pm
running 01/20/2019 21:58:24 Jan 20 04:58 pm Jan 20 1:58 pm
too low 01/20/2019 21:13:36 Jan 20 04:13 pm Jan 20 1:13 pm
too low 01/20/2019 20:43:44 Jan 20 03:43 pm Jan 20 12:43 pm
too low 01/20/2019 19:58:56 Jan 20 02:58 pm Jan 20 11:58 am
too low 01/20/2019 18:44:16 Jan 20 01:44 pm Jan 20 10:44 am
too low 01/20/2019 18:14:24 Jan 20 01:14 pm Jan 20 10:14 am
too low 01/20/2019 16:59:44 Jan 20 11:59 am Jan 20 8:59 am
too low 01/20/2019 16:29:52 Jan 20 11:29 am Jan 20 8:29 am
too low 01/20/2019 15:13:04 Jan 20 10:13 am Jan 20 7:13 am
too low 01/20/2019 14:43:12 Jan 20 09:43 am Jan 20 6:43 am
too low 01/20/2019 14:13:20 Jan 20 09:13 am Jan 20 6:13 am
too low 01/20/2019 13:13:36 Jan 20 08:13 am Jan 20 5:13 am
too low 01/20/2019 12:43:44 Jan 20 07:43 am Jan 20 4:43 am
too low 01/20/2019 11:58:56 Jan 20 06:58 am Jan 20 3:58 am
too low 01/20/2019 11:14:08 Jan 20 06:14 am Jan 20 3:14 am
too low 01/20/2019 10:29:20 Jan 20 05:29 am Jan 20 2:29 am
too low 01/20/2019 09:44:32 Jan 20 04:44 am Jan 20 1:44 am
too low 01/20/2019 06:43:12 Jan 20 01:43 am Jan 19 10:43 pm
too low 01/20/2019 06:13:20 Jan 20 01:13 am Jan 19 10:13 pm
too low 01/20/2019 04:58:40 Jan 19 11:58 pm Jan 19 8:58 pm
too low 01/20/2019 04:28:48 Jan 19 11:28 pm Jan 19 8:28 pm
too low 01/20/2019 02:59:12 Jan 19 09:59 pm Jan 19 6:59 pm
too low 01/20/2019 02:14:24 Jan 19 09:14 pm Jan 19 6:14 pm
too low 01/20/2019 00:59:44 Jan 19 07:59 pm Jan 19 4:59 pm
too low 01/20/2019 00:29:52 Jan 19 07:29 pm Jan 19 4:29 pm
too low 01/19/2019 23:42:56 Jan 19 06:42 pm Jan 19 3:42 pm
too low 01/19/2019 23:28:00 Jan 19 06:28 pm Jan 19 3:28 pm
too low 01/19/2019 23:13:04 Jan 19 06:13 pm Jan 19 3:13 pm
too low 01/19/2019 22:43:12 Jan 19 05:43 pm Jan 19 2:43 pm
too low 01/19/2019 22:13:20 Jan 19 05:13 pm Jan 19 2:13 pm
too low 01/19/2019 21:43:28 Jan 19 04:43 pm Jan 19 1:43 pm
too low 01/19/2019 20:58:40 Jan 19 03:58 pm Jan 19 12:58 pm
too low 01/19/2019 20:43:44 Jan 19 03:43 pm Jan 19 12:43 pm
too low 01/19/2019 19:58:56 Jan 19 02:58 pm Jan 19 11:58 am
too low 01/19/2019 19:44:00 Jan 19 02:44 pm Jan 19 11:44 am
too low 01/19/2019 18:59:12 Jan 19 01:59 pm Jan 19 10:59 am
too low 01/19/2019 18:29:20 Jan 19 01:29 pm Jan 19 10:29 am
too low 01/19/2019 17:59:28 Jan 19 12:59 pm Jan 19 9:59 am
too low 01/19/2019 17:29:36 Jan 19 12:29 pm Jan 19 9:29 am
too low 01/19/2019 16:59:44 Jan 19 11:59 am Jan 19 8:59 am
too low 01/19/2019 16:14:56 Jan 19 11:14 am Jan 19 8:14 am
too low 01/19/2019 15:42:56 Jan 19 10:42 am Jan 19 7:42 am
too low 01/19/2019 14:58:08 Jan 19 09:58 am Jan 19 6:58 am
too low 01/19/2019 14:28:16 Jan 19 09:28 am Jan 19 6:28 am
too low 01/19/2019 14:13:20 Jan 19 09:13 am Jan 19 6:13 am
too low 01/19/2019 13:28:32 Jan 19 08:28 am Jan 19 5:28 am
too low 01/19/2019 12:58:40 Jan 19 07:58 am Jan 19 4:58 am
too low 01/19/2019 12:43:44 Jan 19 07:43 am Jan 19 4:43 am
too low 01/19/2019 12:13:52 Jan 19 07:13 am Jan 19 4:13 am
too low 01/19/2019 11:29:04 Jan 19 06:29 am Jan 19 3:29 am
too low 01/19/2019 10:59:12 Jan 19 05:59 am Jan 19 2:59 am
too low 01/19/2019 10:44:16 Jan 19 05:44 am Jan 19 2:44 am
too low 01/19/2019 10:14:24 Jan 19 05:14 am Jan 19 2:14 am
too low 01/19/2019 06:43:12 Jan 19 01:43 am Jan 18 10:43 pm
too low 01/19/2019 05:58:24 Jan 19 12:58 am Jan 18 9:58 pm
too low 01/19/2019 05:28:32 Jan 19 12:28 am Jan 18 9:28 pm
too low 01/19/2019 04:58:40 Jan 18 11:58 pm Jan 18 8:58 pm
too low 01/19/2019 04:13:52 Jan 18 11:13 pm Jan 18 8:13 pm
too low 01/19/2019 03:44:00 Jan 18 10:44 pm Jan 18 7:44 pm
too low 01/19/2019 02:29:20 Jan 18 09:29 pm Jan 18 6:29 pm
too low 01/19/2019 01:59:28 Jan 18 08:59 pm Jan 18 5:59 pm
too low 01/19/2019 01:29:36 Jan 18 08:29 pm Jan 18 5:29 pm
too low 01/19/2019 00:44:48 Jan 18 07:44 pm Jan 18 4:44 pm
too low 01/19/2019 00:14:56 Jan 18 07:14 pm Jan 18 4:14 pm
too low 01/18/2019 23:42:56 Jan 18 06:42 pm Jan 18 3:42 pm
too low 01/18/2019 22:58:08 Jan 18 05:58 pm Jan 18 2:58 pm
too low 01/18/2019 22:28:16 Jan 18 05:28 pm Jan 18 2:28 pm
too low 01/18/2019 21:58:24 Jan 18 04:58 pm Jan 18 1:58 pm
too low 01/18/2019 21:28:32 Jan 18 04:28 pm Jan 18 1:28 pm
running 01/18/2019 20:58:40 Jan 18 03:58 pm Jan 18 12:58 pm
running 01/18/2019 19:58:56 Jan 18 02:58 pm Jan 18 11:58 am
running 01/18/2019 18:59:12 Jan 18 01:59 pm Jan 18 10:59 am
running 01/18/2019 18:29:20 Jan 18 01:29 pm Jan 18 10:29 am
running 01/18/2019 17:44:32 Jan 18 12:44 pm Jan 18 9:44 am
running 01/18/2019 17:14:40 Jan 18 12:14 pm Jan 18 9:14 am
running 01/18/2019 16:44:48 Jan 18 11:44 am Jan 18 8:44 am
running 01/18/2019 16:00:00 Jan 18 11:00 am Jan 18 8:00 am
running 01/18/2019 14:58:08 Jan 18 09:58 am Jan 18 6:58 am
running 01/18/2019 14:28:16 Jan 18 09:28 am Jan 18 6:28 am
running 01/18/2019 14:13:20 Jan 18 09:13 am Jan 18 6:13 am
running 01/18/2019 12:58:40 Jan 18 07:58 am Jan 18 4:58 am
running 01/18/2019 12:28:48 Jan 18 07:28 am Jan 18 4:28 am
running 01/18/2019 11:58:56 Jan 18 06:58 am Jan 18 3:58 am
running 01/18/2019 10:59:12 Jan 18 05:59 am Jan 18 2:59 am
running 01/18/2019 10:29:20 Jan 18 05:29 am Jan 18 2:29 am
running 01/18/2019 09:59:28 Jan 18 04:59 am Jan 18 1:59 am
running 01/18/2019 06:28:16 Jan 18 01:28 am Jan 17 10:28 pm
running 01/18/2019 05:58:24 Jan 18 12:58 am Jan 17 9:58 pm
running 01/18/2019 05:13:36 Jan 18 12:13 am Jan 17 9:13 pm
running 01/18/2019 04:43:44 Jan 17 11:43 pm Jan 17 8:43 pm
running 01/18/2019 02:59:12 Jan 17 09:59 pm Jan 17 6:59 pm
running 01/18/2019 02:29:20 Jan 17 09:29 pm Jan 17 6:29 pm
running 01/18/2019 01:14:40 Jan 17 08:14 pm Jan 17 5:14 pm
running 01/18/2019 00:44:48 Jan 17 07:44 pm Jan 17 4:44 pm
running 01/18/2019 00:00:00 Jan 17 07:00 pm Jan 17 4:00 pm
running 01/17/2019 23:28:00 Jan 17 06:28 pm Jan 17 3:28 pm
running 01/17/2019 22:58:08 Jan 17 05:58 pm Jan 17 2:58 pm
running 01/17/2019 22:28:16 Jan 17 05:28 pm Jan 17 2:28 pm
running 01/17/2019 21:43:28 Jan 17 04:43 pm Jan 17 1:43 pm
running 01/17/2019 21:13:36 Jan 17 04:13 pm Jan 17 1:13 pm
running 01/17/2019 20:28:48 Jan 17 03:28 pm Jan 17 12:28 pm
running 01/17/2019 19:58:56 Jan 17 02:58 pm Jan 17 11:58 am
running 01/17/2019 19:14:08 Jan 17 02:14 pm Jan 17 11:14 am
running 01/17/2019 18:44:16 Jan 17 01:44 pm Jan 17 10:44 am
running 01/17/2019 18:14:24 Jan 17 01:14 pm Jan 17 10:14 am
running 01/17/2019 17:44:32 Jan 17 12:44 pm Jan 17 9:44 am
running 01/17/2019 17:14:40 Jan 17 12:14 pm Jan 17 9:14 am
running 01/17/2019 16:29:52 Jan 17 11:29 am Jan 17 8:29 am
running 01/17/2019 15:42:56 Jan 17 10:42 am Jan 17 7:42 am
running 01/17/2019 15:28:00 Jan 17 10:28 am Jan 17 7:28 am
running 01/17/2019 15:13:04 Jan 17 10:13 am Jan 17 7:13 am
running 01/17/2019 14:43:12 Jan 17 09:43 am Jan 17 6:43 am
running 01/17/2019 13:58:24 Jan 17 08:58 am Jan 17 5:58 am
running 01/17/2019 13:28:32 Jan 17 08:28 am Jan 17 5:28 am
running 01/17/2019 13:13:36 Jan 17 08:13 am Jan 17 5:13 am
running 01/17/2019 12:28:48 Jan 17 07:28 am Jan 17 4:28 am
running 01/17/2019 11:58:56 Jan 17 06:58 am Jan 17 3:58 am
running 01/17/2019 11:44:00 Jan 17 06:44 am Jan 17 3:44 am
running 01/17/2019 11:14:08 Jan 17 06:14 am Jan 17 3:14 am
running 01/17/2019 10:14:24 Jan 17 05:14 am Jan 17 2:14 am
running 01/17/2019 06:43:12 Jan 17 01:43 am Jan 16 10:43 pm
running 01/17/2019 06:13:20 Jan 17 01:13 am Jan 16 10:13 pm
running 01/17/2019 05:43:28 Jan 17 12:43 am Jan 16 9:43 pm
running 01/17/2019 04:28:48 Jan 16 11:28 pm Jan 16 8:28 pm
too low 01/17/2019 03:58:56 Jan 16 10:58 pm Jan 16 7:58 pm
too low 01/17/2019 02:44:16 Jan 16 09:44 pm Jan 16 6:44 pm
too low 01/17/2019 02:14:24 Jan 16 09:14 pm Jan 16 6:14 pm
too low 01/17/2019 00:59:44 Jan 16 07:59 pm Jan 16 4:59 pm
too low 01/17/2019 00:29:52 Jan 16 07:29 pm Jan 16 4:29 pm
too low 01/17/2019 00:00:00 Jan 16 07:00 pm Jan 16 4:00 pm
too low 01/16/2019 23:13:04 Jan 16 06:13 pm Jan 16 3:13 pm
too low 01/16/2019 22:43:12 Jan 16 05:43 pm Jan 16 2:43 pm
too low 01/16/2019 22:13:20 Jan 16 05:13 pm Jan 16 2:13 pm
too low 01/16/2019 20:58:40 Jan 16 03:58 pm Jan 16 12:58 pm
too low 01/16/2019 20:13:52 Jan 16 03:13 pm Jan 16 12:13 pm
too low 01/16/2019 18:59:12 Jan 16 01:59 pm Jan 16 10:59 am
too low 01/16/2019 18:29:20 Jan 16 01:29 pm Jan 16 10:29 am
too low 01/16/2019 17:59:28 Jan 16 12:59 pm Jan 16 9:59 am
too low 01/16/2019 16:59:44 Jan 16 11:59 am Jan 16 8:59 am
too low 01/16/2019 16:44:48 Jan 16 11:44 am Jan 16 8:44 am
too low 01/16/2019 16:14:56 Jan 16 11:14 am Jan 16 8:14 am
too low 01/16/2019 14:58:08 Jan 16 09:58 am Jan 16 6:58 am
too low 01/16/2019 14:43:12 Jan 16 09:43 am Jan 16 6:43 am
too low 01/16/2019 14:13:20 Jan 16 09:13 am Jan 16 6:13 am
too low 01/16/2019 12:58:40 Jan 16 07:58 am Jan 16 4:58 am
too low 01/16/2019 12:43:44 Jan 16 07:43 am Jan 16 4:43 am
too low 01/16/2019 11:58:56 Jan 16 06:58 am Jan 16 3:58 am
too low 01/16/2019 11:14:08 Jan 16 06:14 am Jan 16 3:14 am
too low 01/16/2019 10:44:16 Jan 16 05:44 am Jan 16 2:44 am
too low 01/16/2019 09:59:28 Jan 16 04:59 am Jan 16 1:59 am
too low 01/16/2019 06:28:16 Jan 16 01:28 am Jan 15 10:28 pm
too low 01/16/2019 05:58:24 Jan 16 12:58 am Jan 15 9:58 pm
too low 01/16/2019 04:58:40 Jan 15 11:58 pm Jan 15 8:58 pm
too low 01/16/2019 03:14:08 Jan 15 10:14 pm Jan 15 7:14 pm
too low 01/16/2019 02:29:20 Jan 15 09:29 pm Jan 15 6:29 pm
too low 01/16/2019 01:59:28 Jan 15 08:59 pm Jan 15 5:59 pm
too low 01/16/2019 00:44:48 Jan 15 07:44 pm Jan 15 4:44 pm
too low 01/16/2019 00:14:56 Jan 15 07:14 pm Jan 15 4:14 pm
too low 01/15/2019 23:13:04 Jan 15 06:13 pm Jan 15 3:13 pm
too low 01/15/2019 22:28:16 Jan 15 05:28 pm Jan 15 2:28 pm
too low 01/15/2019 22:13:20 Jan 15 05:13 pm Jan 15 2:13 pm
too low 01/15/2019 21:13:36 Jan 15 04:13 pm Jan 15 1:13 pm
too low 01/15/2019 20:43:44 Jan 15 03:43 pm Jan 15 12:43 pm
too low 01/15/2019 19:58:56 Jan 15 02:58 pm Jan 15 11:58 am
too low 01/15/2019 18:59:12 Jan 15 01:59 pm Jan 15 10:59 am
too low 01/15/2019 18:29:20 Jan 15 01:29 pm Jan 15 10:29 am
too low 01/15/2019 17:14:40 Jan 15 12:14 pm Jan 15 9:14 am
too low 01/15/2019 16:29:52 Jan 15 11:29 am Jan 15 8:29 am
too low 01/15/2019 16:00:00 Jan 15 11:00 am Jan 15 8:00 am
too low 01/15/2019 14:58:08 Jan 15 09:58 am Jan 15 6:58 am
too low 01/15/2019 14:13:20 Jan 15 09:13 am Jan 15 6:13 am
too low 01/15/2019 12:58:40 Jan 15 07:58 am Jan 15 4:58 am
too low 01/15/2019 12:28:48 Jan 15 07:28 am Jan 15 4:28 am
too low 01/15/2019 12:13:52 Jan 15 07:13 am Jan 15 4:13 am
too low 01/15/2019 10:59:12 Jan 15 05:59 am Jan 15 2:59 am
too low 01/15/2019 10:29:20 Jan 15 05:29 am Jan 15 2:29 am
too low 01/15/2019 09:59:28 Jan 15 04:59 am Jan 15 1:59 am
too low 01/15/2019 06:28:16 Jan 15 01:28 am Jan 14 10:28 pm
too low 01/15/2019 05:58:24 Jan 15 12:58 am Jan 14 9:58 pm
too low 01/15/2019 04:43:44 Jan 14 11:43 pm Jan 14 8:43 pm
too low 01/15/2019 03:58:56 Jan 14 10:58 pm Jan 14 7:58 pm
too low 01/15/2019 02:59:12 Jan 14 09:59 pm Jan 14 6:59 pm
too low 01/15/2019 02:14:24 Jan 14 09:14 pm Jan 14 6:14 pm
too low 01/15/2019 01:14:40 Jan 14 08:14 pm Jan 14 5:14 pm
too low 01/15/2019 00:29:52 Jan 14 07:29 pm Jan 14 4:29 pm
too low 01/15/2019 00:14:56 Jan 14 07:14 pm Jan 14 4:14 pm
too low 01/14/2019 22:58:08 Jan 14 05:58 pm Jan 14 2:58 pm
too low 01/14/2019 22:13:20 Jan 14 05:13 pm Jan 14 2:13 pm
too low 01/14/2019 21:43:28 Jan 14 04:43 pm Jan 14 1:43 pm
too low 01/14/2019 20:58:40 Jan 14 03:58 pm Jan 14 12:58 pm
too low 01/14/2019 20:28:48 Jan 14 03:28 pm Jan 14 12:28 pm
too low 01/14/2019 19:58:56 Jan 14 02:58 pm Jan 14 11:58 am
too low 01/14/2019 19:14:08 Jan 14 02:14 pm Jan 14 11:14 am
too low 01/14/2019 18:44:16 Jan 14 01:44 pm Jan 14 10:44 am
too low 01/14/2019 17:59:28 Jan 14 12:59 pm Jan 14 9:59 am
too low 01/14/2019 16:59:44 Jan 14 11:59 am Jan 14 8:59 am
too low 01/14/2019 16:29:52 Jan 14 11:29 am Jan 14 8:29 am
too low 01/14/2019 16:00:00 Jan 14 11:00 am Jan 14 8:00 am
too low 01/14/2019 15:13:04 Jan 14 10:13 am Jan 14 7:13 am
too low 01/14/2019 14:28:16 Jan 14 09:28 am Jan 14 6:28 am
too low 01/14/2019 13:58:24 Jan 14 08:58 am Jan 14 5:58 am
too low 01/14/2019 13:13:36 Jan 14 08:13 am Jan 14 5:13 am
too low 01/14/2019 12:28:48 Jan 14 07:28 am Jan 14 4:28 am
too low 01/14/2019 11:58:56 Jan 14 06:58 am Jan 14 3:58 am
too low 01/14/2019 10:44:16 Jan 14 05:44 am Jan 14 2:44 am
too low 01/14/2019 10:14:24 Jan 14 05:14 am Jan 14 2:14 am
too low 01/14/2019 06:43:12 Jan 14 01:43 am Jan 13 10:43 pm
too low 01/14/2019 04:58:40 Jan 13 11:58 pm Jan 13 8:58 pm
too low 01/14/2019 03:58:56 Jan 13 10:58 pm Jan 13 7:58 pm
too low 01/14/2019 02:59:12 Jan 13 09:59 pm Jan 13 6:59 pm
too low 01/14/2019 02:44:16 Jan 13 09:44 pm Jan 13 6:44 pm
too low 01/14/2019 01:59:28 Jan 13 08:59 pm Jan 13 5:59 pm
too low 01/14/2019 00:59:44 Jan 13 07:59 pm Jan 13 4:59 pm
too low 01/14/2019 00:29:52 Jan 13 07:29 pm Jan 13 4:29 pm
too low 01/14/2019 00:00:00 Jan 13 07:00 pm Jan 13 4:00 pm
too low 01/13/2019 23:13:04 Jan 13 06:13 pm Jan 13 3:13 pm
too low 01/13/2019 22:43:12 Jan 13 05:43 pm Jan 13 2:43 pm
too low 01/13/2019 22:13:20 Jan 13 05:13 pm Jan 13 2:13 pm
too low 01/13/2019 20:58:40 Jan 13 03:58 pm Jan 13 12:58 pm
too low 01/13/2019 20:43:44 Jan 13 03:43 pm Jan 13 12:43 pm
too low 01/13/2019 20:13:52 Jan 13 03:13 pm Jan 13 12:13 pm
too low 01/13/2019 18:59:12 Jan 13 01:59 pm Jan 13 10:59 am
too low 01/13/2019 18:29:20 Jan 13 01:29 pm Jan 13 10:29 am
too low 01/13/2019 17:59:28 Jan 13 12:59 pm Jan 13 9:59 am
too low 01/13/2019 16:44:48 Jan 13 11:44 am Jan 13 8:44 am
too low 01/13/2019 16:14:56 Jan 13 11:14 am Jan 13 8:14 am
too low 01/13/2019 14:58:08 Jan 13 09:58 am Jan 13 6:58 am
too low 01/13/2019 14:43:12 Jan 13 09:43 am Jan 13 6:43 am
too low 01/13/2019 13:58:24 Jan 13 08:58 am Jan 13 5:58 am
too low 01/13/2019 13:13:36 Jan 13 08:13 am Jan 13 5:13 am
too low 01/13/2019 12:43:44 Jan 13 07:43 am Jan 13 4:43 am
too low 01/13/2019 11:44:00 Jan 13 06:44 am Jan 13 3:44 am
too low 01/13/2019 11:14:08 Jan 13 06:14 am Jan 13 3:14 am
too low 01/13/2019 10:44:16 Jan 13 05:44 am Jan 13 2:44 am
too low 01/13/2019 09:59:28 Jan 13 04:59 am Jan 13 1:59 am
too low 01/13/2019 06:28:16 Jan 13 01:28 am Jan 12 10:28 pm
too low 01/13/2019 05:58:24 Jan 13 12:58 am Jan 12 9:58 pm
too low 01/13/2019 04:43:44 Jan 12 11:43 pm Jan 12 8:43 pm
too low 01/13/2019 04:13:52 Jan 12 11:13 pm Jan 12 8:13 pm
too low 01/13/2019 02:59:12 Jan 12 09:59 pm Jan 12 6:59 pm
too low 01/13/2019 02:29:20 Jan 12 09:29 pm Jan 12 6:29 pm
too low 01/13/2019 01:59:28 Jan 12 08:59 pm Jan 12 5:59 pm
too low 01/13/2019 00:44:48 Jan 12 07:44 pm Jan 12 4:44 pm
too low 01/13/2019 00:14:56 Jan 12 07:14 pm Jan 12 4:14 pm
too low 01/12/2019 22:58:08 Jan 12 05:58 pm Jan 12 2:58 pm
too low 01/12/2019 22:13:20 Jan 12 05:13 pm Jan 12 2:13 pm
too low 01/12/2019 21:43:28 Jan 12 04:43 pm Jan 12 1:43 pm
too low 01/12/2019 21:13:36 Jan 12 04:13 pm Jan 12 1:13 pm
too low 01/12/2019 20:28:48 Jan 12 03:28 pm Jan 12 12:28 pm
too low 01/12/2019 19:58:56 Jan 12 02:58 pm Jan 12 11:58 am
too low 01/12/2019 18:44:16 Jan 12 01:44 pm Jan 12 10:44 am
too low 01/12/2019 18:14:24 Jan 12 01:14 pm Jan 12 10:14 am
too low 01/12/2019 17:14:40 Jan 12 12:14 pm Jan 12 9:14 am
too low 01/12/2019 16:29:52 Jan 12 11:29 am Jan 12 8:29 am
too low 01/12/2019 16:14:56 Jan 12 11:14 am Jan 12 8:14 am
too low 01/12/2019 14:58:08 Jan 12 09:58 am Jan 12 6:58 am
too low 01/12/2019 14:43:12 Jan 12 09:43 am Jan 12 6:43 am
too low 01/12/2019 14:13:20 Jan 12 09:13 am Jan 12 6:13 am
too low 01/12/2019 12:43:44 Jan 12 07:43 am Jan 12 4:43 am
too low 01/12/2019 12:13:52 Jan 12 07:13 am Jan 12 4:13 am
too low 01/12/2019 10:59:12 Jan 12 05:59 am Jan 12 2:59 am
too low 01/12/2019 10:29:20 Jan 12 05:29 am Jan 12 2:29 am
too low 01/12/2019 09:44:32 Jan 12 04:44 am Jan 12 1:44 am
too low 01/12/2019 05:13:36 Jan 12 12:13 am Jan 11 9:13 pm
too low 01/12/2019 04:43:44 Jan 11 11:43 pm Jan 11 8:43 pm
too low 01/12/2019 03:58:56 Jan 11 10:58 pm Jan 11 7:58 pm

Report - Reports of Related Gauges

Reports give the public a chance to report on river conditions throughout the country as well as log the history of a river.

Reports

No Reports Filed

Linked Reaches

Click a heading to sort. Hover over a heading for help.
River Name/Section Class Level running? Updated
Rubicon [CA] Ellicott Bridge to Oxbow Reservoir (Ralston PH) V 604 cfs
-36 cfs/hr
R0-
Lower Runnable
00h59m